Regional Weather Roundup
Issued by NWS

Home | Current Version | Previous Version | Graphics & Text | Print | Product List | Glossary On
Versions: 1 2 3 4 5 6 7 8 9 10 11 12 13 14 15 16 17 18 19 20 21 22 23 24 25 26 27 28 29 30 31 32 33 34 35 36 37 38 39 40 41 42 43 44 45 46 47 48 49 50
000
ASUS45 KSLC 211910
RWRUT

UTAH REGIONAL WEATHER ROUNDUP
NATIONAL WEATHER SERVICE SALT LAKE CITY UT
100 PM MDT THU AUG 21 2014

UTZ001>011-023>025-212000-

NORTHERN UTAH

CITY           SKY/WX    TMP DP  RH WIND       PRES   REMARKS
HILL AFB       PTSUNNY   66  55  68 SE3       30.13F
LOGAN          MOSUNNY   68  52  56 SE9       30.12F
OGDEN          LGT RAIN  68  53  58 E9        30.11F
PROVO AIRPORT  PTSUNNY   75  46  35 S5        30.14F
SALT LAKE CITY CLOUDY    75  50  41 VRB5      30.10S
VERNAL         MOSUNNY   72  48  42 W3        30.15F
WENDOVER       PTSUNNY   75  46  35 SE9       30.07F
HEBER CITY     PTSUNNY   73  45  35 W3        30.17F
WEST JORDAN    PTSUNNY   75  54  46 SE3       30.13S

$$

UTZ012>022-026-027-212000-

SOUTHERN UTAH

CITY           SKY/WX    TMP DP  RH WIND       PRES   REMARKS
BRYCE CANYON   PTSUNNY   67  42  40 NW8       30.31F
CEDAR CITY     PTSUNNY   74  46  36 NW12      30.17F
MILFORD        SUNNY     79  43  27 S15G22    30.12F
MOAB/CYNLANDS  SUNNY     77  49  37 CALM      30.10F
PRICE          PTSUNNY   73  46  38 S10       30.19F
ST GEORGE      MOCLDY    82  52  34 CALM      30.04F
KANAB            N/A     75  45  33 SW5       30.19F

$$

REGIONAL REPORTS     COLORADO/ARIZONA

CITY           SKY/WX    TMP DP  RH WIND       PRES   REMARKS
CRAIG, CO      PTSUNNY   74  46  36 W12G17    30.20F
GRAND JUNCTION CLOUDY    76  48  37 VRB3      30.13F
RIFLE          CLOUDY    76  45  33 W9        30.16F
MONTROSE       PTSUNNY   78  43  28 N9        30.19F
CORTEZ         MOSUNNY   80  39  23 VRB7      30.19F
PAGE, AZ       CLOUDY    83  44  25 N7        30.12F
GRAND CANYON   PTSUNNY   68  48  48 CALM      30.30S
KINGMAN        LGT RAIN  68  60  75 S8        30.15R
FLAGSTAFF      CLOUDY    66  45  46 E8        30.30F

$$

REGIONAL REPORTS    NEVADA/IDAHO/WYOMING

CITY           SKY/WX    TMP DP  RH WIND       PRES   REMARKS
LAS VEGAS, NV  MOSUNNY   91  45  20 VRB3      29.92F
ELY            MOSUNNY   74  36  25 SW7       30.18F
ELKO           SUNNY     80  32  17 W13       30.06F
POCATELLO, ID  PTSUNNY   70  54  56 SW6       30.10S
BURLEY         MOSUNNY   73  52  47 VRB5      30.05F
EVANSTON, WY   PTSUNNY   64  44  48 W23       30.25R
ROCK SPRINGS   PTSUNNY   70  41  34 W22G29    30.20F

$$


USA.gov is the U.S. government's official web portal to all federal, state and local government web resources and services.